Flag for U.S.A. Weather past 2 weeks in Worcester, Massachusetts, U.S.A.

Now
77 °F

Sunny.


Feels Like: 78 °F
Forecast: 62 / 83 °F
Wind: 12 mph from West

Location: Worcester Regional Airport

Current Time: Aug 2, 2015 at 12:49:22 PM

Latest Report: Aug 2, 2015 at 11:54 AM


Visibility: 10 mi

Pressure: 29.94 "Hg

Humidity: 45%

Dew point: 54 °F

Location of WorcesterLocation

Historic Weather in Worcester — Graph

°F

Worcester temperature yesterday

Maximum temperature yesterday: 81 °F (at 1:54 PM)
Minimum temperature yesterday: 63 °F (at 11:54 PM)
Average temperature yesterday: 71 °F

Past Weeks' High & Low Weather Summary

 TemperatureHumidityPressure
High88 °F (Jul 29, 2:54 PM)97% (Jul 26, 5:54 AM)30.07 "Hg (Jul 26, 5:54 AM)
Low57 °F (Jul 25, 4:54 AM)35% (Jul 22, 2:54 PM)29.57 "Hg (Jul 21, 6:54 PM)
Average72 °F69%29.87 "Hg
* Reported Jul 18 11:54 AM — Aug 2 11:54 AM, Worcester, Weather by CustomWeather, © 2015

Note: Actual official high and low records may vary slightly from our data, if they occured in-between our weather recording intervals... More about our weather records

Advertising

Worcester weather history for previous 24 hours

 ConditionsComfort  
Time TempWeatherWind HumidityBarometerVisibility
11:54 AM
Sun, Aug 2
77 °FSunny.12 mph45%29.94 "Hg10 mi
10:54 AM76 °FSunny.9 mph48%29.93 "Hg10 mi
9:54 AM73 °FSunny.12 mph51%29.92 "Hg10 mi
8:54 AM71 °FSunny.9 mph55%29.92 "Hg10 mi
7:54 AM68 °FSunny.10 mph59%29.90 "Hg10 mi
6:54 AM64 °FSunny.12 mph65%29.89 "Hg10 mi
5:54 AM62 °FClear.10 mph67%29.88 "Hg10 mi
4:54 AM61 °FClear.8 mph70%29.87 "Hg10 mi
3:54 AM63 °FClear.9 mph68%29.87 "Hg10 mi
2:54 AM63 °FClear.9 mph70%29.86 "Hg10 mi
1:54 AM62 °FClear.10 mph78%29.86 "Hg10 mi
12:54 AM65 °FClear.9 mph68%29.86 "Hg10 mi
11:54 PM
Sat, Aug 1
63 °FPassing clouds.7 mph81%29.86 "Hg10 mi
10:54 PM65 °FClear.5 mph76%29.84 "Hg10 mi
9:54 PM65 °FClear.8 mph85%29.84 "Hg10 mi
8:54 PM69 °FSunny.6 mph79%29.82 "Hg10 mi
7:54 PM72 °FSunny.6 mph71%29.80 "Hg10 mi
6:54 PM76 °FSunny.7 mph58%29.78 "Hg10 mi
5:54 PM75 °FSunny.7 mph62%29.77 "Hg10 mi
4:54 PM73 °FPartly sunny.8 mph66%29.76 "Hg10 mi
3:54 PM72 °FBroken clouds.8 mph71%29.78 "Hg10 mi
3:01 PM74 °FThundershowers. Mostly cloudy.17 mph60%29.78 "Hg10 mi
1:54 PM81 °FPassing clouds.14 mph42%29.76 "Hg10 mi
12:54 PM79 °FPassing clouds.14 mph50%29.78 "Hg10 mi
Weather by CustomWeather, © 2015

See weather overviewHow to use our weather pages